CW8822 Caguas PR US current weather conditions

sailwx.info

Wind from 115

Air temperature 23.9° C
Dewpoint 22.0° C

Last reported at 2017-Apr-28 01:58 UTC.
Time now 2017-Apr-28 02:30 UTC

Location: N 18°12' W 066°01'.
View on Google Maps.

See reports from other nearby stations

  
Tides and Currents Weather Stations Pressure Air Temp Water Temp Dewpoint Dewpoint Depression Visibility Wind Speed Wind Dir Waves Ship Positions
date/time (UTC)wind fromknots sea level pressurealtimeterstation pressurevisibilityair tempwater tempwave heightnotes
2017-Apr-28 01:58 115 23.9
2017-Apr-28 01:44 116 23.9
2017-Apr-28 01:29 121 23.9
2017-Apr-28 01:14 113 23.9
2017-Apr-28 00:58 091 23.9
2017-Apr-28 00:43 075 23.9
2017-Apr-28 00:29 106 23.9
2017-Apr-28 00:14 109 23.9
2017-Apr-27 23:58 111 24.4
2017-Apr-27 23:43 095 23.9
2017-Apr-27 23:28 095 24.4
2017-Apr-27 23:13 074 24.4
2017-Apr-27 22:59 116 25.0
2017-Apr-27 22:44 080 0 gusting 6 25.0
2017-Apr-27 22:28 078 25.6
2017-Apr-27 22:13 118 26.1
2017-Apr-27 21:58 158 26.1
2017-Apr-27 21:42 150 26.7
2017-Apr-27 21:28 084 0 gusting 7 26.7
2017-Apr-27 21:13 123 26.1
2017-Apr-27 20:58 077 0 gusting 6 26.7
2017-Apr-27 20:42 125 0 gusting 6 27.2
2017-Apr-27 20:27 076 0 gusting 6 27.2
2017-Apr-27 20:12 180 1 gusting 6 27.8
2017-Apr-27 19:57 049 27.2
2017-Apr-27 19:43 121 0 gusting 5 28.3
2017-Apr-27 19:28 113 0 gusting 5 27.8
2017-Apr-27 19:12 080 0 gusting 6 28.3
2017-Apr-27 18:57 088 0 gusting 6 27.8
2017-Apr-27 18:43 143 27.8
2017-Apr-27 18:28 080 0 gusting 6 27.8
2017-Apr-27 18:13 100 0 gusting 6 27.2
2017-Apr-27 17:57 093 28.3
2017-Apr-27 17:42 155 28.3
2017-Apr-27 17:28 044 1 gusting 6 28.3
2017-Apr-27 17:11 079 1 gusting 8 27.2
2017-Apr-27 16:56 053 0 gusting 5 28.3
2017-Apr-27 16:42 073 2 gusting 8 28.3
2017-Apr-27 16:11 360 2 gusting 11 27.2
2017-Apr-27 15:56 053 4 gusting 11 27.2
2017-Apr-27 15:41 031 6 gusting 12 27.8
2017-Apr-27 15:27 092 28.3
2017-Apr-27 15:11 017 0 gusting 8 27.8
2017-Apr-27 14:56 078 0 gusting 11 26.7
2017-Apr-27 14:40 055 2 gusting 10 26.7
2017-Apr-27 14:26 069 0 gusting 6 27.2
2017-Apr-27 14:11 153 26.1
2017-Apr-27 13:56 069 2 gusting 7 26.7
2017-Apr-27 13:40 035 1 gusting 9 27.2
2017-Apr-27 13:25 045 26.1
2017-Apr-27 13:11 034 2 gusting 7 25.6
2017-Apr-27 12:55 014 0 gusting 6 26.1
2017-Apr-27 12:40 034 25.6
2017-Apr-27 12:26 065 25.0
2017-Apr-27 12:10 129 24.4
2017-Apr-27 11:55 079 23.9
2017-Apr-27 11:39 123 23.3
2017-Apr-27 11:25 086 22.8
2017-Apr-27 10:54 060 22.8
2017-Apr-27 10:40 060 22.2
2017-Apr-27 10:23 060 22.2
2017-Apr-27 10:09 060 22.2
2017-Apr-27 09:55 090 22.2
2017-Apr-27 09:54 090 22.2
2017-Apr-27 09:39 090 22.2
2017-Apr-27 09:24 090 22.2
2017-Apr-27 09:09 090 22.2
2017-Apr-27 08:55 090 22.2
2017-Apr-27 08:38 090 22.2
2017-Apr-27 08:24 090 22.2
2017-Apr-27 08:09 090 22.2
2017-Apr-27 07:53 090 22.2
2017-Apr-27 07:38 090 22.2
2017-Apr-27 07:24 090 22.8
2017-Apr-27 07:08 090 22.8
2017-Apr-27 06:53 090 22.8
2017-Apr-27 06:38 090 22.8
2017-Apr-27 06:24 090 22.8
2017-Apr-27 06:07 111 22.8
2017-Apr-27 05:53 111 22.8
2017-Apr-27 05:39 081 22.8
2017-Apr-27 05:22 116 22.8
2017-Apr-27 05:08 116 22.8
2017-Apr-27 04:53 115 22.8
2017-Apr-27 04:37 116 22.8
2017-Apr-27 04:22 111 23.3
2017-Apr-27 04:08 117 23.3
2017-Apr-27 03:52 117 23.3
2017-Apr-27 03:37 137 23.3
2017-Apr-27 03:23 124 23.3
2017-Apr-27 03:07 140 0 gusting 6 23.3
2017-Apr-27 02:52 092 23.3
2017-Apr-27 02:38 126 23.3
2017-Apr-27 02:23 152 23.3
2017-Apr-27 02:07 134 23.3
2017-Apr-27 01:51 136 23.3
2017-Apr-27 01:36 136 23.3
2017-Apr-27 01:22 136 23.9
2017-Apr-27 01:06 136 23.9
2017-Apr-27 00:52 137 23.9
2017-Apr-27 00:36 138 23.9
2017-Apr-27 00:21 138 23.9
2017-Apr-27 00:06 138 24.4
2017-Apr-26 23:52 139 0 gusting 5 24.4
2017-Apr-26 23:36 137 24.4
2017-Apr-26 23:21 137 24.4
2017-Apr-26 23:06 140 24.4
2017-Apr-26 22:50 142 25.0
2017-Apr-26 22:35 146 25.0
2017-Apr-26 22:21 126 25.0
2017-Apr-26 22:05 123 25.6
2017-Apr-26 21:51 121 25.6
2017-Apr-26 21:35 143 25.6
2017-Apr-26 21:21 126 25.6
2017-Apr-26 21:06 142 0 gusting 9 26.1
2017-Apr-26 20:51 089 0 gusting 6 26.1
2017-Apr-26 20:35 155 0 gusting 6 26.1
2017-Apr-26 20:20 122 0 gusting 8 26.1
2017-Apr-26 20:06 155 0 gusting 6 26.7
2017-Apr-26 19:50 148 26.7
2017-Apr-26 19:35 125 1 gusting 6 26.7
2017-Apr-26 19:21 103 27.8
2017-Apr-26 19:04 098 1 gusting 9 27.8
2017-Apr-26 18:50 108 0 gusting 9 28.3
2017-Apr-26 18:35 114 28.9
2017-Apr-26 18:19 140 1 gusting 13 28.9
2017-Apr-26 18:04 136 2 gusting 9 28.3
2017-Apr-26 17:50 113 0 gusting 9 28.3
2017-Apr-26 17:35 116 2 gusting 9 28.3
2017-Apr-26 17:20 098 0 gusting 10 28.3
2017-Apr-26 17:04 123 2 gusting 13 28.3
2017-Apr-26 16:49 127 1 gusting 10 28.3
2017-Apr-26 16:34 094 28.3
2017-Apr-26 16:20 121 0 gusting 9 28.3
2017-Apr-26 16:04 108 1 gusting 10 27.8
2017-Apr-26 15:49 154 3 gusting 11 27.8
2017-Apr-26 15:34 152 1 gusting 6 27.2
2017-Apr-26 15:18 172 1 gusting 7 27.8
2017-Apr-26 15:03 136 1 gusting 7 28.3
2017-Apr-26 14:48 123 0 gusting 7 27.8
2017-Apr-26 14:33 082 27.8
2017-Apr-26 14:18 094 0 gusting 5 27.8
2017-Apr-26 14:03 071 0 gusting 5 27.8
2017-Apr-26 13:49 123 1 gusting 8 27.2
2017-Apr-26 13:32 084 0 gusting 6 26.7
2017-Apr-26 13:18 107 25.6
2017-Apr-26 13:03 134 25.6
2017-Apr-26 12:48 134 24.4
2017-Apr-26 12:32 153 23.9
2017-Apr-26 12:18 147 22.8
2017-Apr-26 12:02 147 23.3
2017-Apr-26 11:47 148 22.8
2017-Apr-26 11:33 147 22.8
2017-Apr-26 11:17 147 22.8
2017-Apr-26 11:02 147 22.8
2017-Apr-26 10:47 147 22.8
2017-Apr-26 10:32 136 0 gusting 6 22.8
2017-Apr-26 10:17 130 22.8
2017-Apr-26 10:01 159 22.8
2017-Apr-26 09:47 168 23.3
2017-Apr-26 09:32 134 0 gusting 6 23.3
2017-Apr-26 09:17 143 0 gusting 7 22.8
2017-Apr-26 09:01 143 23.3
2017-Apr-26 08:46 140 23.3
2017-Apr-26 08:32 132 23.3
2017-Apr-26 08:17 132 23.9
2017-Apr-26 08:01 132 23.3
2017-Apr-26 07:46 132 23.3
2017-Apr-26 07:32 132 23.3
2017-Apr-26 07:15 132 23.9
2017-Apr-26 07:01 132 23.9
2017-Apr-26 06:46 132 23.9
2017-Apr-26 06:30 132 23.9
2017-Apr-26 06:16 134 23.9
2017-Apr-26 06:01 137 23.9
2017-Apr-26 05:46 137 23.9
2017-Apr-26 05:30 137 23.9
2017-Apr-26 05:15 137 23.9
2017-Apr-26 05:01 137 23.9
2017-Apr-26 04:46 171 23.9
2017-Apr-26 04:30 149 23.9
2017-Apr-26 04:15 136 23.9
2017-Apr-26 04:00 146 23.9
2017-Apr-26 03:44 148 23.9
2017-Apr-26 03:29 148 23.9
2017-Apr-26 03:15 115 23.9
2017-Apr-26 03:00 121 23.9
2017-Apr-26 02:44 164 23.9
2017-Apr-26 02:30 128 23.9
2017-Apr-26 02:15 113 24.4